Tracking 30308 objects as of 19-Apr-2025
HD Live streaming from Space Station
objects crossing your sky now

BREEZE-M DEB (TANK)

Track BREEZE-M DEB (TANK) now!
10-day predictions


NORAD ID: 40386
Int'l Code: 2015-005C
Perigee: 395.0 km
Apogee: 14,552.6 km
Inclination: 50.8 °
Period: 270.2 minutes
Semi major axis: 13844 km
RCS: Unknown
Launch date: February 1, 2015
Source: Commonwealth of Independent States (former USSR) (CIS)
Launch site: TYURATAM MISSILE AND SPACE COMPLEX (TTMTR)

Note: This is SATELLITE DEBRIS
Your satellite tracking list
Your tracking list is empty




NASA's NSSDC Master Catalog

Two Line Element Set (TLE):
1 40386U 15005C   25107.17436688  .00000967  00000-0  59686-3 0  9999
2 40386  50.7599  13.8079 5112969 256.8418  43.5965  5.32934609196686
Source of the keplerian elements: AFSPC